Details for Ryanair at ESGG




Go Back


Latest METAR
Local Time

ESGG 240750Z 16007KT CAVOK 20/09 Q1030

24/05/2018, 10:08:25

Description
Results
Ryanair Logo
Number of Pilots based at ESGG
0 Pilots Based here
Number of Ryanair Flights Departed from ESGG
0 Flights Departed
Number of Ryanair Flights Arrived at ESGG
0 Flights Arrived
Number of Ryanair Schedules Departing from ESGG
20 Schedules
Number of Ryanair Schedules Arriving at ESGG
19 Schedules
Number of Ryanair Schedules Departing from ESGG availible today
5 Schedules Today
Number of Ryanair Schedules Arriving at ESGG availible today
5 Schedules Today
Average Landing Rate at ESGG
-365 fpm
Ryanair Average Landing Rate at ESGG
0 fpm
Total Fuel Purchased at ESGG by Ryanair
0.00 kgs / 0.00 lbs

Pilots Based at ESGG


Pilot ID
Pilot Name
Pilot Rank
No. of Flights
No. of Flying Hours
There are no pilots assigned to this hub!   Will you be the first?
Content